Burlington, IA

5:57 AM CST on December 10, 2016 (GMT -0600)
Burlington Regional

Weather History for KBRL - October, 2012

Change the Weather History Date:

Monday, October 8, 2012

  Actual Average Record
Temperature  
Mean Temperature 48 °F 58 °F  
Max Temperature 62 °F 69 °F 89 °F (1916)
Min Temperature 33 °F 47 °F 27 °F (1952)
Degree Days  
Heating Degree Days 17 8  
Month to date heating degree days 119 55  
Since 1 July heating degree days 245 126  
Cooling Degree Days 0 1  
Month to date cooling degree days 0 11  
Year to date cooling degree days 1272 1193  
Moisture  
Dew Point 31 °F    
Average Humidity 57    
Maximum Humidity 82    
Minimum Humidity 32    
Precipitation  
Precipitation 0.00 in 0.11 in 0.82 in (2004)
Month to date precipitation 0.40 0.87  
Year to date precipitation 18.14 31.64  
Sea Level Pressure  
Sea Level Pressure 30.06 in    
Wind  
Wind Speed 12 mph (SSW)    
Max Wind Speed 24 mph    
Max Gust Speed 32 mph    
Visibility 10 miles    
Events      
T = Trace of Precipitation, MM = Missing Value Source: NWS Daily Summary

Daily Weather History Graph

Daily Weather History Graph

Search for Another Location

Airport or City:

Trip Planner

Search our weather history database for the weather conditions in past years. The results will help you decide how hot, cold, wet, or windy it might be!

Date:

Astronomy

Oct. 08, 2012 Rise Set
Actual Time 7:08 AM CDT 6:34 PM CDT
Civil Twilight 6:41 AM CDT 7:01 PM CDT
Nautical Twilight 6:09 AM CDT 7:33 PM CDT
Astronomical Twilight 5:37 AM CDT 8:05 PM CDT
Moon No Moon Rise 2:26 PM CDT (10/8)
Length of Visible Light 12h 20m
Length of Day
11h 25m
Last Quarter, 46% of the Moon is Illuminated
Oct 8
Last Quarter
Oct 15
New
Oct 21
First Quarter
Oct 29
Full
Nov 6
Last Quarter

Hourly Weather History & Observations

Time (CDT) Temp. Windchill Dew Point Humidity Pressure Visibility Wind Dir Wind Speed Gust Speed Precip Events Conditions
12:53 AM 35.1 °F 32.2 °F 27.0 °F 72% 30.15 in 10.0 mi South 3.5 mph - N/A   Clear
1:53 AM 34.0 °F 29.8 °F 28.0 °F 79% 30.15 in 10.0 mi South 4.6 mph - N/A   Clear
2:53 AM 34.0 °F 28.8 °F 28.9 °F 82% 30.14 in 10.0 mi South 5.8 mph - N/A   Clear
3:53 AM 34.0 °F 28.8 °F 28.9 °F 82% 30.12 in 10.0 mi South 5.8 mph - N/A   Clear
4:53 AM 34.0 °F 28.0 °F 28.9 °F 82% 30.12 in 10.0 mi South 6.9 mph - N/A   Clear
5:53 AM 33.1 °F 26.9 °F 28.9 °F 85% 30.12 in 10.0 mi South 6.9 mph - N/A   Clear
6:53 AM 33.1 °F 27.7 °F 28.9 °F 85% 30.13 in 10.0 mi South 5.8 mph - N/A   Clear
7:53 AM 35.1 °F 31.0 °F 30.9 °F 85% 30.14 in 10.0 mi SSW 4.6 mph - N/A   Clear
8:53 AM 42.1 °F 37.1 °F 33.1 °F 70% 30.14 in 10.0 mi SSW 8.1 mph - N/A   Clear
9:53 AM 46.9 °F - 35.1 °F 63% 30.13 in 10.0 mi SW 11.5 mph - N/A   Clear
10:53 AM 54.0 °F - 35.1 °F 49% 30.11 in 10.0 mi SW 15.0 mph 18.4 mph N/A   Clear
11:53 AM 57.0 °F - 33.1 °F 40% 30.09 in 10.0 mi SSW 18.4 mph 27.6 mph N/A   Clear
12:53 PM 59.0 °F - 32.0 °F 36% 30.06 in 9.0 mi South 20.7 mph 26.5 mph N/A   Clear
1:53 PM 60.1 °F - 30.0 °F 32% 30.03 in 10.0 mi SW 24.2 mph 28.8 mph N/A   Clear
2:53 PM 61.0 °F - 32.0 °F 34% 30.01 in 9.0 mi SW 18.4 mph 29.9 mph N/A   Clear
3:53 PM 61.0 °F - 30.0 °F 31% 29.98 in 8.0 mi SSW 18.4 mph 27.6 mph N/A   Clear
4:53 PM 60.1 °F - 30.9 °F 33% 29.97 in 10.0 mi SW 20.7 mph 26.5 mph N/A   Clear
5:53 PM 57.9 °F - 32.0 °F 37% 29.97 in 10.0 mi SSW 12.7 mph - N/A   Clear
6:53 PM 55.0 °F - 33.1 °F 43% 29.98 in 10.0 mi SSW 10.4 mph - N/A   Clear
7:53 PM 52.0 °F - 33.1 °F 49% 29.99 in 10.0 mi South 9.2 mph - N/A   Clear
8:53 PM 51.1 °F - 33.1 °F 50% 29.99 in 10.0 mi South 9.2 mph - N/A   Clear
9:53 PM 51.1 °F - 34.0 °F 52% 30.00 in 10.0 mi South 10.4 mph - N/A   Clear
10:53 PM 48.0 °F - 34.0 °F 58% 29.99 in 10.0 mi South 8.1 mph - N/A   Clear
11:53 PM 46.4 °F 41.5 °F 33.8 °F 62% 29.97 in 10.0 mi SSW 10.4 mph - N/A   Clear